Change the Weather History Date:

Thursday, September 26, 2013

  Actual Average (KGYR) Record (KGYR)
Temperature  
Mean Temperature 78 °F -  
Max Temperature 89 °F 95 °F 105 °F (2010)
Min Temperature 68 °F 68 °F 64 °F (2007)
Cooling Degree Days 14    
Growing Degree Days 28 (Base 50)    
Moisture  
Dew Point 38 °F    
Average Humidity 26    
Maximum Humidity 39    
Minimum Humidity 11    
Precipitation  
Precipitation 0.00 in - - ()
Sea Level Pressure  
Sea Level Pressure 29.67 in    
Wind  
Wind Speed 7 mph (SW)    
Max Wind Speed 20 mph    
Max Gust Speed 26 mph    
Visibility 10 miles    
Events      
Averages and records for this station are not official NWS values.
T = Trace of Precipitation, MM = Missing Value Source: NWS Daily Summary

Daily Weather History Graph

Daily Weather History Graph

Search for Another Location

Airport or City:

Trip Planner

Search our weather history database for the weather conditions in past years. The results will help you decide how hot, cold, wet, or windy it might be!

Date:

Astronomy

Sep. 26, 2013 Rise Set
Actual Time 6:21 AM MST 6:21 PM MST
Civil Twilight 5:57 AM MST 6:46 PM MST
Nautical Twilight 5:28 AM MST 7:15 PM MST
Astronomical Twilight 4:59 AM MST 7:44 PM MST
Moon 11:37 PM MST (9/26) 1:02 PM MST (9/26)
Length of Visible Light 12h 49m
Length of Day
11h 59m
Waning Gibbous, 53% of the Moon is Illuminated
Sep 26
Waning Gibbous
Sep 26
Last Quarter
Oct 4
New
Oct 11
First Quarter
Oct 18
Full

Hourly Weather History & Observations

Time (MST) Temp. Heat Index Dew Point Humidity Pressure Visibility Wind Dir Wind Speed Gust Speed Precip Events Conditions
12:15 AM 73.4 °F - 46.4 °F 38% 29.65 in 10.0 mi NNE 4.6 mph - N/A   Clear
12:35 AM 73.4 °F - 44.6 °F 36% 29.65 in 10.0 mi Calm Calm - N/A   Clear
12:55 AM 71.6 °F - 44.6 °F 38% 29.66 in 10.0 mi Calm Calm - N/A   Clear
1:15 AM 71.6 °F - 44.6 °F 38% 29.66 in 10.0 mi Calm Calm - N/A   Clear
1:35 AM 73.4 °F - 41.0 °F 31% 29.66 in 10.0 mi Calm Calm - N/A   Clear
1:55 AM 69.8 °F - 42.8 °F 38% 29.66 in 10.0 mi ENE 3.5 mph - N/A   Clear
2:15 AM 69.8 °F - 41.0 °F 35% 29.65 in 10.0 mi East 4.6 mph - N/A   Clear
2:35 AM 71.6 °F - 41.0 °F 33% 29.65 in 10.0 mi East 3.5 mph - N/A   Clear
2:55 AM 69.8 °F - 41.0 °F 35% 29.65 in 10.0 mi Calm Calm - N/A   Clear
3:15 AM 68.0 °F - 39.2 °F 35% 29.64 in 10.0 mi NNE 3.5 mph - N/A   Partly Cloudy
3:35 AM 68.0 °F - 39.2 °F 35% 29.64 in 10.0 mi ENE 3.5 mph - N/A   Scattered Clouds
3:55 AM 68.0 °F - 39.2 °F 35% 29.65 in 10.0 mi NE 3.5 mph - N/A   Scattered Clouds
4:15 AM 68.0 °F - 39.2 °F 35% 29.65 in 9.0 mi East 3.5 mph - N/A   Scattered Clouds
4:35 AM 68.0 °F - 41.0 °F 37% 29.65 in 10.0 mi ENE 3.5 mph - N/A   Scattered Clouds
4:55 AM 68.0 °F - 41.0 °F 37% 29.65 in 10.0 mi East 5.8 mph - N/A   Mostly Cloudy
5:15 AM 68.0 °F - 37.4 °F 33% 29.65 in 10.0 mi East 9.2 mph - N/A   Mostly Cloudy
5:35 AM 68.0 °F - 35.6 °F 30% 29.66 in 10.0 mi East 6.9 mph - N/A   Mostly Cloudy
5:55 AM 69.8 °F - 35.6 °F 28% 29.66 in 10.0 mi East 9.2 mph - N/A   Overcast
6:15 AM 69.8 °F - 35.6 °F 28% 29.66 in 10.0 mi East 9.2 mph - N/A   Scattered Clouds
6:35 AM 69.8 °F - 35.6 °F 28% 29.66 in 10.0 mi East 9.2 mph - N/A   Clear
6:55 AM 71.6 °F - 35.6 °F 27% 29.67 in 10.0 mi East 8.1 mph - N/A   Clear
7:15 AM 71.6 °F - 37.4 °F 29% 29.68 in 10.0 mi East 8.1 mph - N/A   Clear
7:35 AM 73.4 °F - 39.2 °F 29% 29.68 in 10.0 mi East 8.1 mph - N/A   Clear
7:55 AM 75.2 °F - 39.2 °F 27% 29.68 in 10.0 mi East 8.1 mph - N/A   Clear
8:15 AM 75.2 °F - 39.2 °F 27% 29.69 in 10.0 mi East 8.1 mph - N/A   Clear
8:35 AM 77.0 °F - 41.0 °F 28% 29.69 in 10.0 mi East 9.2 mph - N/A   Clear
8:55 AM 77.0 °F - 42.8 °F 29% 29.70 in 10.0 mi ESE 6.9 mph - N/A   Clear
9:15 AM 77.0 °F - 46.4 °F 34% 29.70 in 10.0 mi Calm Calm - N/A   Clear
9:35 AM 78.8 °F - 48.2 °F 34% 29.70 in 10.0 mi SE 3.5 mph - N/A   Clear
9:55 AM 78.8 °F - 51.8 °F 39% 29.71 in 10.0 mi SSW 4.6 mph - N/A   Clear
10:15 AM 80.6 °F 80.3 °F 53.6 °F 39% 29.70 in 10.0 mi SE 4.6 mph - N/A   Clear
10:35 AM 82.4 °F 81.7 °F 55.4 °F 39% 29.70 in 10.0 mi SSW 4.6 mph - N/A   Clear
10:55 AM 82.4 °F 81.4 °F 53.6 °F 37% 29.69 in 10.0 mi SSE 8.1 mph - N/A   Clear
11:15 AM 84.2 °F 82.8 °F 53.6 °F 35% 29.68 in 10.0 mi SSW 11.5 mph - N/A   Clear
11:35 AM 84.2 °F - 51.8 °F 33% 29.68 in 10.0 mi SSE 9.2 mph 16.1 mph N/A   Clear
11:55 AM 86.0 °F - 48.2 °F 27% 29.68 in 10.0 mi South 11.5 mph - N/A   Clear
12:15 PM 86.0 °F - 46.4 °F 25% 29.67 in 10.0 mi SSW 11.5 mph - N/A   Clear
12:35 PM 86.0 °F - 48.2 °F 27% 29.66 in 10.0 mi SSW 12.7 mph 18.4 mph N/A   Clear
12:55 PM 87.8 °F - 44.6 °F 22% 29.65 in 10.0 mi SSW 12.7 mph 20.7 mph N/A   Clear
1:15 PM 87.8 °F - 46.4 °F 24% 29.65 in 10.0 mi SW 8.1 mph - N/A   Clear
1:35 PM 89.6 °F - 48.2 °F 24% 29.64 in 10.0 mi SSW 10.4 mph 17.3 mph N/A   Clear
1:55 PM 89.6 °F - 48.2 °F 24% 29.63 in 10.0 mi SSW 12.7 mph 21.9 mph N/A   Clear
2:15 PM 89.6 °F - 46.4 °F 22% 29.63 in 10.0 mi SW 13.8 mph 19.6 mph N/A   Clear
2:35 PM 89.6 °F - 41.0 °F 18% 29.63 in 10.0 mi SW 15.0 mph 20.7 mph N/A   Clear
2:55 PM 89.6 °F - 39.2 °F 17% 29.63 in 10.0 mi WSW 13.8 mph 20.7 mph N/A   Clear
3:15 PM 89.6 °F - 35.6 °F 15% 29.63 in 10.0 mi West 12.7 mph 18.4 mph N/A   Clear
3:35 PM 89.6 °F - 37.4 °F 16% 29.63 in 10.0 mi West 13.8 mph 19.6 mph N/A   Clear
3:55 PM 89.6 °F - 37.4 °F 16% 29.63 in 10.0 mi WSW 13.8 mph 23.0 mph N/A   Partly Cloudy
4:15 PM 89.6 °F - 39.2 °F 17% 29.62 in 10.0 mi WSW 19.6 mph 24.2 mph N/A   Partly Cloudy
4:35 PM 87.8 °F - 35.6 °F 16% 29.63 in 10.0 mi WSW 16.1 mph 23.0 mph N/A   Partly Cloudy
4:55 PM 87.8 °F - 32.0 °F 14% 29.63 in 10.0 mi WSW 18.4 mph 25.3 mph N/A   Scattered Clouds
5:15 PM 86.0 °F - 24.8 °F 11% 29.63 in 10.0 mi WSW 18.4 mph 26.5 mph N/A   Scattered Clouds
5:35 PM 86.0 °F - 24.8 °F 11% 29.63 in 10.0 mi WSW 13.8 mph 20.7 mph N/A   Mostly Cloudy
5:55 PM 84.2 °F - 24.8 °F 11% 29.64 in 10.0 mi WSW 13.8 mph 20.7 mph N/A   Mostly Cloudy
6:15 PM 82.4 °F - 26.6 °F 13% 29.64 in 10.0 mi WNW 16.1 mph 20.7 mph N/A   Mostly Cloudy
6:35 PM 82.4 °F - 28.4 °F 14% 29.65 in 10.0 mi WNW 13.8 mph - N/A   Overcast
6:55 PM 82.4 °F - 28.4 °F 14% 29.65 in 10.0 mi WNW 15.0 mph 20.7 mph N/A   Overcast
7:15 PM 80.6 °F - 28.4 °F 15% 29.67 in 10.0 mi WNW 13.8 mph 20.7 mph N/A   Overcast
7:35 PM 80.6 °F - 28.4 °F 15% 29.67 in 10.0 mi WNW 16.1 mph 21.9 mph N/A   Overcast
7:55 PM 80.6 °F - 28.4 °F 15% 29.68 in 10.0 mi WNW 12.7 mph 20.7 mph N/A   Overcast
8:15 PM 78.8 °F - 28.4 °F 16% 29.69 in 10.0 mi WNW 11.5 mph - N/A   Overcast
8:35 PM 77.0 °F - 28.4 °F 17% 29.70 in 10.0 mi WNW 9.2 mph - N/A   Overcast
8:55 PM 77.0 °F - 26.6 °F 16% 29.71 in 10.0 mi WNW 9.2 mph - N/A   Overcast
9:15 PM 77.0 °F - 26.6 °F 16% 29.71 in 10.0 mi WNW 8.1 mph - N/A   Overcast
9:35 PM 77.0 °F - 26.6 °F 16% 29.71 in 10.0 mi NW 11.5 mph - N/A   Overcast
9:55 PM 75.2 °F - 26.6 °F 17% 29.71 in 10.0 mi WNW 12.7 mph 18.4 mph N/A   Mostly Cloudy
10:15 PM 75.2 °F - 26.6 °F 17% 29.72 in 10.0 mi NW 9.2 mph - N/A   Scattered Clouds
10:35 PM 73.4 °F - 26.6 °F 18% 29.73 in 10.0 mi WNW 5.8 mph - N/A   Partly Cloudy
10:55 PM 69.8 °F - 32.0 °F 25% 29.74 in 10.0 mi West 6.9 mph - N/A   Scattered Clouds
11:15 PM 68.0 °F - 30.2 °F 24% 29.75 in 10.0 mi WSW 6.9 mph - N/A   Partly Cloudy
11:35 PM 68.0 °F - 28.4 °F 23% 29.75 in 10.0 mi WSW 6.9 mph - N/A   Clear
11:55 PM 68.0 °F - 28.4 °F 23% 29.75 in 10.0 mi West 6.9 mph - N/A   Partly Cloudy